Weather History for Monett, MO

Change the Weather History Date:

Saturday, January 26, 2013

  Actual Average (KJLN) Record (KJLN)
Temperature  
Mean Temperature 44 °F 36 °F  
Max Temperature 55 °F 46 °F 67 °F (1953)
Min Temperature 32 °F 25 °F 3 °F (1963)
Degree Days  
Heating Degree Days 22 30  
Month to date heating degree days 780  
Since 1 July heating degree days 2397  
Cooling Degree Days 0 0  
Month to date cooling degree days 0  
Year to date cooling degree days 0  
Moisture  
Dew Point 25 °F    
Average Humidity 50    
Maximum Humidity 80    
Minimum Humidity 29    
Precipitation  
Precipitation 0.00 in 0.06 in 1.33 in (1967)
Month to date precipitation 1.70  
Year to date precipitation 1.70  
Sea Level Pressure  
Sea Level Pressure 30.20 in    
Wind  
Wind Speed 7 mph (ESE)    
Max Wind Speed 15 mph    
Max Gust Speed 21 mph    
Visibility 10 miles    
Events      
T = Trace of Precipitation, MM = Missing Value Source: NWS Daily Summary

Daily Weather History Graph

Daily Weather History Graph

Search for Another Location

Airport:

Trip Planner

Search our weather history database for the weather conditions in past years. The results will help you decide how hot, cold, wet, or windy it might be!

Date:

Astronomy

Jan. 26, 2013 Rise Set
Actual Time 7:22 AM CST 5:35 PM CST
Civil Twilight 6:54 AM CST 6:02 PM CST
Nautical Twilight 6:23 AM CST 6:34 PM CST
Astronomical Twilight 5:52 AM CST 7:04 PM CST
Moon 5:29 PM CST (1/26) 6:41 AM CST (1/26)
Length of Visible Light 11h 07m
Length of Day
10h 12m
Full, 100% of the Moon is Illuminated
Jan 26
Full
Jan 26
Full
Feb 3
Last Quarter
Feb 10
New
Feb 17
First Quarter

Hourly Weather History & Observations

Time (CST) Temp. Windchill Dew Point Humidity Pressure Visibility Wind Dir Wind Speed Gust Speed Precip Events Conditions
12:15 AM 33.8 °F - 26.6 °F 75% 30.25 in 10.0 mi Calm Calm - N/A   Clear
12:55 AM 33.8 °F - 26.6 °F 75% 30.25 in 10.0 mi Calm Calm - N/A   Clear
1:15 AM 32.0 °F 28.7 °F 26.6 °F 80% 30.25 in 10.0 mi SE 3.5 mph - N/A   Clear
1:35 AM 32.0 °F 27.5 °F 26.6 °F 80% 30.24 in 10.0 mi ESE 4.6 mph - N/A   Clear
1:55 AM 33.8 °F 29.6 °F 24.8 °F 70% 30.23 in 10.0 mi East 4.6 mph - N/A   Clear
2:15 AM 33.8 °F 28.6 °F 24.8 °F 70% 30.23 in 10.0 mi ESE 5.8 mph - N/A   Clear
2:35 AM 33.8 °F 29.6 °F 23.0 °F 65% 30.24 in 10.0 mi East 4.6 mph - N/A   Clear
2:55 AM 33.8 °F 28.6 °F 24.8 °F 70% 30.23 in 10.0 mi ESE 5.8 mph - N/A   Clear
3:15 AM 32.0 °F 26.4 °F 26.6 °F 80% 30.23 in 10.0 mi SE 5.8 mph - N/A   Clear
3:35 AM 33.8 °F 28.6 °F 26.6 °F 75% 30.23 in 10.0 mi ESE 5.8 mph - N/A   Clear
3:55 AM 32.0 °F 26.4 °F 26.6 °F 80% 30.23 in 10.0 mi ESE 5.8 mph - N/A   Clear
4:15 AM 33.8 °F 28.6 °F 26.6 °F 75% 30.23 in 10.0 mi East 5.8 mph - N/A   Clear
4:35 AM 32.0 °F 25.6 °F 26.6 °F 80% 30.23 in 10.0 mi ESE 6.9 mph - N/A   Clear
4:55 AM 33.8 °F 27.7 °F 26.6 °F 75% 30.23 in 10.0 mi ESE 6.9 mph - N/A   Clear
5:15 AM 33.8 °F 27.7 °F 26.6 °F 75% 30.23 in 10.0 mi ESE 6.9 mph - N/A   Clear
5:35 AM 32.0 °F 24.2 °F 26.6 °F 80% 30.22 in 10.0 mi ESE 9.2 mph - N/A   Clear
5:55 AM 35.6 °F 28.0 °F 24.8 °F 65% 30.22 in 10.0 mi East 10.4 mph - N/A   Clear
6:15 AM 35.6 °F 29.9 °F 24.8 °F 65% 30.23 in 10.0 mi East 6.9 mph - N/A   Clear
6:35 AM 35.6 °F 30.7 °F 24.8 °F 65% 30.23 in 10.0 mi East 5.8 mph - N/A   Clear
6:55 AM 35.6 °F 30.7 °F 23.0 °F 60% 30.23 in 10.0 mi East 5.8 mph - N/A   Clear
7:15 AM 37.4 °F 32.1 °F 23.0 °F 56% 30.24 in 10.0 mi East 6.9 mph - N/A   Clear
7:35 AM 35.6 °F 31.7 °F 24.8 °F 65% 30.25 in 10.0 mi ESE 4.6 mph - N/A   Clear
7:55 AM 35.6 °F 30.7 °F 26.6 °F 70% 30.26 in 10.0 mi ESE 5.8 mph - N/A   Clear
8:15 AM 37.4 °F 31.4 °F 23.0 °F 56% 30.26 in 10.0 mi ESE 8.1 mph - N/A   Clear
8:35 AM 37.4 °F 31.4 °F 23.0 °F 56% 30.26 in 10.0 mi ESE 8.1 mph - N/A   Clear
8:55 AM 39.2 °F 33.0 °F 24.8 °F 56% 30.25 in 10.0 mi East 9.2 mph - N/A   Clear
9:15 AM 41.0 °F 33.9 °F 24.8 °F 53% 30.25 in 10.0 mi ESE 12.7 mph - N/A   Clear
9:35 AM 42.8 °F 37.0 °F 26.6 °F 53% 30.25 in 10.0 mi ESE 10.4 mph - N/A   Clear
9:55 AM 44.6 °F 38.4 °F 24.8 °F 46% 30.25 in 10.0 mi ESE 12.7 mph - N/A   Clear
10:15 AM 46.4 °F 40.7 °F 24.8 °F 43% 30.26 in 10.0 mi ESE 12.7 mph - N/A   Clear
10:35 AM 48.2 °F - 26.6 °F 43% 30.25 in 10.0 mi ESE 13.8 mph - N/A   Clear
10:55 AM 50.0 °F - 26.6 °F 40% 30.26 in 10.0 mi ESE 10.4 mph - N/A   Clear
11:15 AM 50.0 °F - 26.6 °F 40% 30.26 in 10.0 mi ESE 8.1 mph - N/A   Clear
11:35 AM 50.0 °F - 26.6 °F 40% 30.26 in 10.0 mi ESE 8.1 mph - N/A   Clear
11:55 AM 51.8 °F - 26.6 °F 38% 30.25 in 10.0 mi SSE 11.5 mph - N/A   Clear
12:15 PM 51.8 °F - 24.8 °F 35% 30.23 in 10.0 mi SSE 15.0 mph 19.6 mph N/A   Clear
12:35 PM 53.6 °F - 26.6 °F 35% 30.22 in 10.0 mi SE 13.8 mph 18.4 mph N/A   Clear
12:55 PM 53.6 °F - 26.6 °F 35% 30.21 in 10.0 mi SE 10.4 mph 17.3 mph N/A   Clear
1:15 PM 53.6 °F - 26.6 °F 35% 30.20 in 10.0 mi SE 11.5 mph - N/A   Clear
1:35 PM 55.4 °F - 24.8 °F 31% 30.18 in 10.0 mi SE 11.5 mph - N/A   Clear
1:55 PM 55.4 °F - 23.0 °F 29% 30.17 in 10.0 mi SE 15.0 mph 19.6 mph N/A   Clear
2:15 PM 55.4 °F - 24.8 °F 31% 30.16 in 10.0 mi SE 11.5 mph - N/A   Clear
2:35 PM 55.4 °F - 23.0 °F 29% 30.16 in 10.0 mi SE 13.8 mph 19.6 mph N/A   Clear
2:55 PM 55.4 °F - 23.0 °F 29% 30.16 in 10.0 mi SE 12.7 mph 18.4 mph N/A   Clear
3:15 PM 55.4 °F - 23.0 °F 29% 30.15 in 10.0 mi SE 13.8 mph 20.7 mph N/A   Clear
3:35 PM 55.4 °F - 23.0 °F 29% 30.15 in 10.0 mi SE 15.0 mph 19.6 mph N/A   Scattered Clouds
3:55 PM 55.4 °F - 23.0 °F 29% 30.15 in 10.0 mi SE 12.7 mph 18.4 mph N/A   Overcast
4:15 PM 55.4 °F - 23.0 °F 29% 30.15 in 10.0 mi ESE 9.2 mph - N/A   Overcast
4:35 PM 53.6 °F - 24.8 °F 33% 30.15 in 10.0 mi SE 9.2 mph - N/A   Mostly Cloudy
4:55 PM 53.6 °F - 24.8 °F 33% 30.15 in 10.0 mi ESE 9.2 mph - N/A   Overcast
5:15 PM 51.8 °F - 24.8 °F 35% 30.15 in 10.0 mi ESE 9.2 mph - N/A   Overcast
5:35 PM 51.8 °F - 24.8 °F 35% 30.14 in 10.0 mi ESE 10.4 mph - N/A   Overcast
5:55 PM 50.0 °F - 24.8 °F 37% 30.14 in 10.0 mi ESE 11.5 mph - N/A   Overcast
6:15 PM 50.0 °F - 23.0 °F 35% 30.15 in 10.0 mi SE 10.4 mph 16.1 mph N/A   Overcast
6:55 PM 50.0 °F - 23.0 °F 35% 30.15 in 10.0 mi SE 10.4 mph - N/A   Overcast
7:15 PM 48.2 °F - 24.8 °F 40% 30.15 in 10.0 mi SE 9.2 mph - N/A   Overcast
7:35 PM 48.2 °F - 26.6 °F 43% 30.15 in 10.0 mi SE 9.2 mph - N/A   Overcast
7:55 PM 46.4 °F 41.9 °F 26.6 °F 46% 30.15 in 10.0 mi SE 9.2 mph - N/A   Overcast
8:15 PM 48.2 °F - 26.6 °F 43% 30.15 in 10.0 mi SE 10.4 mph - N/A   Overcast
8:55 PM 48.2 °F - 23.0 °F 37% 30.15 in 10.0 mi SE 10.4 mph - N/A   Mostly Cloudy
9:15 PM 46.4 °F 41.5 °F 24.8 °F 43% 30.15 in 10.0 mi SE 10.4 mph - N/A   Mostly Cloudy
9:35 PM 46.4 °F 41.5 °F 24.8 °F 43% 30.13 in 10.0 mi SE 10.4 mph - N/A   Scattered Clouds
9:55 PM 46.4 °F 41.5 °F 24.8 °F 43% 30.14 in 10.0 mi SE 10.4 mph - N/A   Scattered Clouds
10:15 PM 46.4 °F 41.5 °F 26.6 °F 46% 30.13 in 10.0 mi SE 10.4 mph - N/A   Overcast
10:35 PM 46.4 °F 41.1 °F 24.8 °F 43% 30.13 in 10.0 mi SE 11.5 mph 18.4 mph N/A   Overcast
10:55 PM 46.4 °F 41.5 °F 26.6 °F 46% 30.13 in 10.0 mi SE 10.4 mph - N/A   Overcast
11:15 PM 46.4 °F 41.5 °F 26.6 °F 46% 30.13 in 10.0 mi SE 10.4 mph - N/A   Overcast
11:35 PM 46.4 °F 41.5 °F 26.6 °F 46% 30.13 in 10.0 mi SE 10.4 mph - N/A   Overcast
11:55 PM 44.6 °F 39.2 °F 26.6 °F 49% 30.12 in 10.0 mi SE 10.4 mph - N/A   Overcast